15 daagse weersverwachting Bergamo (IT)

  • Overzicht
  • Per uur
  • 15 dagen
  • Extra
  • Vergelijk
  • Kaarten
  • Dagkaart
  • Meer »
  • Info
  • Statistieken
  • Directe link
    Temp 6h Neerslag Wind  
 07:44     18:29    Daglengte: 10:45 Vandaag
20:00
15°
12.2 mm
3
 07:46     18:27    Daglengte: 10:41 Morgen
02:00
15°
10.0 mm
2
08:00
15°
1.8 mm
2
14:00
19°
1.8 mm
4
20:00
17°
11.6 mm
4
warningclass
 07:47     18:25    Daglengte: 10:38 Maandag 21 Okt
02:00
17°
14.1 mm
3
warningclass
08:00
16°
28.4 mm
2
14:00
19°
26.5 mm
2
warningclass
20:00
17°
25.7 mm
2
warningclass
 07:48     18:24    Daglengte: 10:36 Dinsdag 22 Okt
02:00
17°
42.5 mm
1
08:00
15°
13.9 mm
1
14:00
21°
 
2
Locatie info
Region: Lombardia
Latitude: 45.6952°N
Longitude: 9.6695°E
260 masl
Postcode: 24121
Temp/Neerslag /Baro Onweer/Dauwpunt
    Temp Baro 1h Neerslag Dauwpunt Wind UV Bewolking  
 07:44     18:29    Daglengte: 10:45 Vandaag
17:00
16°
1014.9 hPa 6.4 mm
48%
13.0°
3
Windvlaag: -0.7 km/h
66%
18:00
16°
1014.8 hPa 1.9 mm
82%
12.9°
3
Windvlaag: -0.7 km/h
67%
19:00
16°
1015.1 hPa 1.9 mm
82%
12.4°
3
Windvlaag: -0.7 km/h
66%
20:00
15°
1015.5 hPa 2.1 mm
82%
12.1°
3
Windvlaag: -0.4 km/h
61%
21:00
15°
1015.7 hPa 1.4 mm
82%
12.2°
3
Windvlaag: -0.4 km/h
71%
22:00
15°
1015.9 hPa 1.8 mm
82%
12.6°
3
Windvlaag: -0.9 km/h
77%
23:00
15°
1016.1 hPa 1.7 mm
82%
12.6°
3
Windvlaag: -0.8 km/h
75%
 07:46     18:27    Daglengte: 10:41 Morgen
00:00
15°
1016.3 hPa 1.5 mm
82%
12.9°
2
Windvlaag: 0.5 km/h
41%
01:00
15°
1016.4 hPa 1.8 mm
74%
12.8°
2
Windvlaag: 0.2 km/h
41%
02:00
15°
1016.6 hPa 1.8 mm
69%
12.7°
2
Windvlaag: 0.4 km/h
56%
03:00
15°
1016.5 hPa 1.8 mm
69%
12.9°
2
Windvlaag: 0.1 km/h
50%
04:00
15°
1016.3 hPa
69%
12.5°
2
Windvlaag: 0.1 km/h
45%
05:00
15°
1016.5 hPa
32%
12.5°
2
Windvlaag: -0.2 km/h
51%
06:00
15°
1016.7 hPa
30%
12.5°
2
Windvlaag: -0.1 km/h
65%
07:00
15°
1016.9 hPa
73%
12.5°
2
Windvlaag: 0 km/h
63%
08:00
15°
1016.9 hPa
34%
12.4°
2
Windvlaag: -0.1 km/h
41%
09:00
15°
1017.6 hPa
75%
12.8°
2
Windvlaag: -0.3 km/h
64%
10:00
16°
1017.9 hPa 1.8 mm
79%
13.4°
2
Windvlaag: 0.6 km/h
76%
11:00
17°
1018.0 hPa
82%
13.6°
3
Windvlaag: 1 km/h
56%
12:00
18°
1018.3 hPa
82%
13.5°
3
Windvlaag: 1.8 km/h
60%
13:00
19°
1017.8 hPa
78%
13.1°
4
Windvlaag: 1.4 km/h
70%
14:00
19°
1017.3 hPa
72%
13.5°
4
Windvlaag: 2.6 km/h
75%
15:00
19°
1017.3 hPa 2.5 mm
82%
13.6°
3
Windvlaag: 2.1 km/h
75%
16:00
19°
1017.0 hPa 1.8 mm
82%
13.8°
3
Windvlaag: 1 km/h
73%
17:00
18°
1017.0 hPa 1.5 mm
82%
13.8°
3
Windvlaag: 0.9 km/h
80%
18:00
18°
1017.2 hPa 1.4 mm
81%
13.7°
3
Windvlaag: 0 km/h
77%
19:00
17°
1017.5 hPa 2.0 mm
82%
13.4°
3
Windvlaag: 0.1 km/h
88%
20:00
17°
1017.8 hPa 2.5 mm
82%
13.4°
4
Windvlaag: -0.9 km/h
87% warningclass
21:00
17°
1017.8 hPa 2.0 mm
81%
13.5°
4
Windvlaag: -1.5 km/h
86% warningclass
22:00
17°
1018.3 hPa 2.1 mm
82%
13.4°
3
Windvlaag: -1.2 km/h
88% warningclass
23:00
17°
1018.7 hPa 2.4 mm
82%
13.4°
3
Windvlaag: -0.4 km/h
84% warningclass
 07:47     18:25    Daglengte: 10:38 Maandag 21 Okt
00:00
17°
1018.8 hPa 2.3 mm
82%
13.5°
3
Windvlaag: -0 km/h
89% warningclass
01:00
17°
1018.5 hPa 2.5 mm
82%
13.5°
3
Windvlaag: 0.1 km/h
89%
02:00
17°
1018.5 hPa 2.9 mm
82%
13.7°
3
Windvlaag: -0.5 km/h
85% warningclass
03:00
16°
1018.6 hPa 3.3 mm
82%
13.8°
2
Windvlaag: 0.9 km/h
90% warningclass
04:00
16°
1018.4 hPa 4.1 mm
82%
14.0°
2
Windvlaag: 0.5 km/h
91% warningclass
05:00
16°
1018.4 hPa 4.8 mm
82%
14.1°
2
Windvlaag: 0.7 km/h
90% warningclass
06:00
16°
1018.7 hPa 4.5 mm
82%
14.1°
2
Windvlaag: 1.2 km/h
91% warningclass
07:00
16°
1019.2 hPa 5.6 mm
82%
14.3°
2
Windvlaag: 1 km/h
90%
08:00
16°
1019.6 hPa 6.1 mm
81%
14.4°
2
Windvlaag: 0.6 km/h
90%
09:00
16°
1020.1 hPa 5.6 mm
78%
14.7°
3
Windvlaag: 1.2 km/h
90%
10:00
17°
1020.8 hPa 5.0 mm
76%
15.1°
3
Windvlaag: 0.8 km/h
89%
11:00
18°
1021.0 hPa 4.8 mm
93%
15.1°
2
Windvlaag: -0.3 km/h
89% warningclass
12:00
19°
1021.1 hPa 3.8 mm
93%
15.2°
2
Windvlaag: 0.2 km/h
96% warningclass
13:00
19°
1021.3 hPa 3.5 mm
94%
15.7°
2
Windvlaag: -0 km/h
94% warningclass
14:00
19°
1021.1 hPa 3.8 mm
94%
15.8°
2
Windvlaag: 0.4 km/h
88% warningclass
15:00
20°
1020.9 hPa 3.9 mm
93%
15.7°
2
Windvlaag: 0.2 km/h
93% warningclass
16:00
19°
1020.9 hPa 3.9 mm
95%
16.4°
2
Windvlaag: 0.1 km/h
90% warningclass
17:00
19°
1021.0 hPa 4.5 mm
93%
16.4°
2
Windvlaag: 0.5 km/h
96% warningclass
18:00
18°
1020.9 hPa 6.8 mm
46%
16.2°
2
Windvlaag: 0.6 km/h
92% warningclass
19:00
18°
1021.0 hPa
84%
15.4°
2
Windvlaag: 0.1 km/h
94%
20:00
17°
1021.5 hPa 6.7 mm
48%
15.2°
2
Windvlaag: -0.1 km/h
98% warningclass
21:00
17°
1021.5 hPa 7.1 mm
42%
15.1°
2
Windvlaag: -0.1 km/h
96% warningclass
22:00
17°
1021.8 hPa 7.1 mm
81%
14.9°
2
Windvlaag: -0.2 km/h
95% warningclass
23:00
17°
1022.2 hPa 7.0 mm
35%
14.7°
2
Windvlaag: -0.3 km/h
98%
 07:48     18:24    Daglengte: 10:36 Dinsdag 22 Okt
00:00
17°
1022.4 hPa 7.1 mm
34%
14.7°
2
Windvlaag: 0.7 km/h
95% warningclass
01:00
17°
1022.5 hPa 7.1 mm
39%
14.8°
1
Windvlaag: 0.5 km/h
92%
02:00
17°
1022.7 hPa 7.1 mm
43%
14.8°
1
Windvlaag: 0.3 km/h
93%
03:00
16°
1022.8 hPa 7.0 mm
42%
14.5°
1
Windvlaag: 0.5 km/h
85%
04:00
16°
1022.5 hPa 6.9 mm
35%
14.2°
1
Windvlaag: 0.5 km/h
77%
05:00
16°
1022.4 hPa
27%
14.2°
1
Windvlaag: 0.3 km/h
57%
06:00
15°
1022.4 hPa
22%
13.9°
1
Windvlaag: 0.4 km/h
52%
07:00
15°
1022.4 hPa
21%
13.7°
1
Windvlaag: 0.5 km/h
59%
08:00
15°
1022.8 hPa
21%
13.0°
1
Windvlaag: 0.2 km/h
70%
09:00
16°
1022.7 hPa
21%
13.6°
1
Windvlaag: 7.2 km/h
58%
10:00
17°
1022.7 hPa
21%
14.3°
1
Windvlaag: 9.4 km/h
59%
11:00
18°
1022.8 hPa
21%
15.0°
1
Windvlaag: 10.4 km/h
81%
12:00
19°
1022.7 hPa
21%
15.5°
2
Windvlaag: 9 km/h
70%
13:00
20°
1022.7 hPa
21%
15.8°
2
Windvlaag: 8.3 km/h
61%
14:00
21°
1022.6 hPa
21%
16.1°
2
Windvlaag: 1.1 km/h
75%
15:00
20°
1022.3 hPa 34.0 mm
100%
16.0°
2
Windvlaag: 7.6 km/h
87%
16:00
20°
1022.3 hPa 34.0 mm
100%
15.8°
2
Windvlaag: 7.1 km/h
83%
Temp/Neerslag /Baro Onweer/Dauwpunt
    Temp Baro Neerslag Dauwpunt Wind Bewolking  
 07:44     18:29    Daglengte: 10:45 Vandaag
17:00
16°
1014.9 hPa 6.4 mm 13.0°
3
66%
20:00
15°
1015.5 hPa 5.8 mm 12.1°
3
61%
23:00
15°
1016.1 hPa 4.9 mm 12.6°
3
75%
 07:46     18:27    Daglengte: 10:41 Morgen
02:00
15°
1016.6 hPa 5.1 mm 12.7°
2
56%
05:00
15°
1016.5 hPa 1.8 mm 12.5°
2
51%
08:00
15°
1016.9 hPa   12.4°
2
41%
11:00
17°
1018.0 hPa 1.8 mm 13.6°
3
56%
14:00
19°
1017.3 hPa   13.5°
4
75%
17:00
18°
1017.0 hPa 5.8 mm 13.8°
3
80%
20:00
17°
1017.8 hPa 5.9 mm 13.4°
4
87% warningclass
23:00
17°
1018.7 hPa 6.4 mm 13.4°
3
84% warningclass
 07:47     18:25    Daglengte: 10:38 Maandag 21 Okt
02:00
17°
1018.5 hPa 7.6 mm 13.7°
3
85% warningclass
05:00
16°
1018.4 hPa 12.2 mm 14.1°
2
90% warningclass
08:00
16°
1019.6 hPa 16.2 mm 14.4°
2
90%
11:00
18°
1021.0 hPa 15.5 mm 15.1°
2
89% warningclass
14:00
19°
1021.1 hPa 11.1 mm 15.8°
2
88% warningclass
17:00
19°
1021.0 hPa 12.3 mm 16.4°
2
96% warningclass
20:00
17°
1021.5 hPa 13.4 mm 15.2°
2
98% warningclass
23:00
17°
1022.2 hPa 21.2 mm 14.7°
2
98%
 07:48     18:24    Daglengte: 10:36 Dinsdag 22 Okt
02:00
17°
1022.7 hPa 21.3 mm 14.8°
1
93%
05:00
16°
1022.4 hPa 13.9 mm 14.2°
1
57%
08:00
15°
1022.8 hPa   13.0°
1
70%
11:00
18°
1022.8 hPa   15.0°
1
81%
14:00
21°
1022.6 hPa   16.1°
2
75%
17:00
19°
1022.2 hPa 101.9 mm 15.6°
2
81%
20:00
17°
1022.1 hPa 101.8 mm 15.0°
1
67%
23:00
14°
1022.1 hPa 21.3 mm 12.8°
1
66%
 07:50     18:22    Daglengte: 10:32 Woensdag 23 Okt
02:00
13°
1021.8 hPa 21.3 mm 11.6°
1
64%
05:00
12°
1021.2 hPa 21.3 mm 10.2°
1
75%
08:00
12°
1020.5 hPa 21.3 mm 8.9°
1
85%
11:00
17°
1020.0 hPa 21.3 mm 11.9°
1
58%
14:00
21°
1019.5 hPa 21.3 mm 14.5°
1
32%
17:00
19°
1019.1 hPa 21.3 mm 14.5°
1
19%
20:00
16°
1018.8 hPa 21.3 mm 13.7°
1
6%
23:00
14°
1018.8 hPa 21.3 mm 11.6°
1
49%
 07:51     18:20    Daglengte: 10:29 Donderdag 24 Okt
02:00
12°
1018.9 hPa 21.3 mm 9.6°
1
91%
05:00
13°
1018.6 hPa 21.3 mm 9.1°
1
87%
08:00
13°
1018.2 hPa 21.3 mm 8.5°
0
84%
11:00
17°
1018.2 hPa 21.4 mm 11.1°
1
80%
14:00
20°
1018.3 hPa 21.6 mm 13.5°
1
77%
17:00
18°
1018.4 hPa 21.7 mm 14.1°
1
84%
20:00
16°
1018.6 hPa 21.7 mm 14.4°
1
92%
23:00
14°
1018.7 hPa 21.7 mm 12.3°
1
80%
 07:53     18:19    Daglengte: 10:26 Vrijdag 25 Okt
02:00
13°
1018.7 hPa 21.8 mm 10.5°
1
67%
05:00
12°
1018.8 hPa 22.7 mm 9.9°
1
39%
08:00
12°
1019.0 hPa 23.2 mm 9.1°
1
11%
11:00
16°
1019.4 hPa 23.2 mm 12.0°
1
5%
14:00
19°
1019.8 hPa 23.4 mm 14.8°
1
0%
17:00
17°
1020.2 hPa 23.5 mm 13.9°
1
9%
20:00
14°
1020.8 hPa 23.9 mm 12.8°
1
19%
23:00
13°
1021.2 hPa 24.2 mm 11.2°
1
10%
 07:54     18:17    Daglengte: 10:23 Zaterdag 26 Okt
02:00
12°
1021.5 hPa 24.2 mm 9.6°
0
1%
05:00
11°
1021.4 hPa 24.2 mm 9.3°
1
0%
08:00
11°
1021.4 hPa 24.2 mm 8.9°
1
0%
11:00
16°
1021.7 hPa 24.7 mm 12.0°
1
0%
14:00
20°
1022.0 hPa 49.8 mm 14.8°
1
0%
20:00
14°
1021.6 hPa 50.3 mm 12.9°
1
0%
 07:55     18:15    Daglengte: 10:20 Zondag 27 Okt
02:00
11°
1021.3 hPa 50.3 mm 8.5°
1
0%
07:00
10°
Voelt als: 9.7°
1020.0 hPa 50.3 mm 6.6°
1
0%
13:00
20°
1019.7 hPa 50.3 mm 14.1°
1
0%
19:00
14°
1019.4 hPa 50.3 mm 11.7°
1
0%
 07:57     18:14    Daglengte: 10:17 Maandag 28 Okt
01:00
12°
1020.1 hPa 50.3 mm 8.9°
1
0%
07:00
11°
1020.2 hPa 50.3 mm 7.9°
1
0%
13:00
19°
1020.4 hPa 50.3 mm 12.7°
2
15%
19:00
13°
1020.3 hPa 50.3 mm 10.7°
1
24%
 07:58     18:12    Daglengte: 10:14 Dinsdag 29 Okt
01:00
13°
1020.7 hPa 50.3 mm 10.9°
1
92%
07:00
12°
1013.6 hPa 50.3 mm 7.0°
1
1%
13:00
19°
1016.4 hPa   9.2°
1
22%
19:00
12°
1017.3 hPa 0.1 mm 8.6°
1
26%
 08:00     18:11    Daglengte: 10:11 Woensdag 30 Okt
01:00
11°
1018.6 hPa 0.1 mm 7.4°
1
29%
07:00
10°
Voelt als: 9.6°
1018.8 hPa 0.2 mm 6.2°
2
26%
13:00
17°
1017.6 hPa 0.2 mm 8.1°
1
25%
19:00
11°
1018.7 hPa 0.2 mm 7.8°
1
30%
 08:01     18:09    Daglengte: 10:08 Donderdag 31 Okt
01:00
10°
1019.7 hPa 0.2 mm 6.8°
1
33%
07:00
Voelt als: 8.9°
1019.6 hPa 0.2 mm 5.6°
1
30%
13:00
16°
1017.9 hPa 0.3 mm 7.9°
1
27%
19:00
11°
1019.0 hPa 0.3 mm 7.7°
0
29%
 08:02     18:08    Daglengte: 10:06 Vrijdag 01 Nov
01:00
10°
Voelt als: 9.9°
1019.9 hPa 0.2 mm 6.5°
1
25%
07:00
Voelt als: 8.9°
1020.0 hPa   5.4°
2
20%
13:00
17°
1018.6 hPa   8.0°
1
23%
19:00
11°
1019.6 hPa   7.8°
0
27%
 08:04     18:06    Daglengte: 10:02 Zaterdag 02 Nov
01:00
10°
1020.1 hPa 0.1 mm 7.2°
1
29%
07:00
Voelt als: 8.9°
1019.7 hPa 0.7 mm 6.1°
1
31%
13:00
17°
1018.4 hPa 0.2 mm 8.3°
1
27%
19:00
10°
1019.3 hPa   7.9°
0
20%
 08:05     18:05    Daglengte: 10:00 Zondag 03 Nov
01:00
10°
1019.8 hPa 0.2 mm 7.2°
1
22%
07:00
Voelt als: 9.1°
1019.3 hPa 0.5 mm 6.1°
1
30%
13:00
16°
1017.8 hPa 0.8 mm 8.2°
1
36%
  CAPE Lifted Index Hail Supercell Tornado SRH 3km CL BTM PRES CL TOP PRES Swiss DWD icon SMHI TS
 07:44     18:29    Daglengte: 10:45 Vandaag
17:00 206 J/kg -0.9 K 0 % 0 % 0 % 0 m²/s² 0 0 0.15 80
18:00 188 J/kg -0.7 K 0 % 0 % 0 % 0 m²/s² 0 0 0.92 80
19:00 157 J/kg -0.5 K 0 % 0 % 0 % 0 m²/s² 0 0 0.01 80
20:00 93 J/kg -0.2 K 0 % 0 % 0 % 0 m²/s² 0 0 1.33 80
21:00 43 J/kg 0.4 K 0 % 0 % 0 % 0 m²/s² 0 0 1.63 80
22:00 11 J/kg 1.2 K 0 % 0 % 0 % 0 m²/s² 0 0 2.49 61
23:00 0 J/kg 1.3 K 0 % 0 % 0 % 0 m²/s² 0 0 2.44 80
 07:46     18:27    Daglengte: 10:41 Morgen
00:00 0 J/kg 0.6 K 0 % 0 % 0 % 0 m²/s² 0 0 1.89 80
01:00 0 J/kg 0.7 K 0 % 0 % 0 % 0 m²/s² 0 0 2.17 3
02:00 0 J/kg 1.0 K 0 % 0 % 0 % 0 m²/s² 0 0 2.29 3
03:00 0 J/kg 1.1 K 0 % 0 % 0 % 0 m²/s² 0 0 2.78 3
04:00 0 J/kg 1.1 K 0 % 0 % 0 % 0 m²/s² 0 0 3.23 3
05:00 0 J/kg 0.9 K 0 % 0 % 0 % 0 m²/s² 0 0 3.18 3
06:00 0 J/kg 1.0 K 0 % 0 % 0 % 0 m²/s² 0 0 3.34 2
07:00 0 J/kg 1.3 K 0 % 0 % 0 % 0 m²/s² 0 0 3.37 3
08:00 0 J/kg 1.7 K 0 % 0 % 0 % 0 m²/s² 0 0 3.65 2
09:00 0 J/kg 1.8 K 0 % 0 % 0 % 0 m²/s² 0 0 4.08 3
10:00 0 J/kg 1.2 K 0 % 0 % 0 % 0 m²/s² 0 0 2.85 3
11:00 0 J/kg 0.9 K 0 % 0 % 0 % 0 m²/s² 0 0 2.25 3
12:00 0 J/kg 0.8 K 0 % 0 % 0 % 0 m²/s² 0 0 2 3
13:00 0 J/kg 0.9 K 0 % 0 % 0 % 0 m²/s² 0 0 2.37 3
14:00 0 J/kg 0.2 K 0 % 0 % 0 % 0 m²/s² 0 0 1.55 3
15:00 0 J/kg -0.6 K 0 % 0 % 0 % 0 m²/s² 0 0 0.87 61
16:00 0 J/kg -1.3 K 0 % 0 % 0 % 0 m²/s² 0 0 0.65 80
17:00 0 J/kg -1.2 K 0 % 0 % 0 % 0 m²/s² 0 0 0.69 80
18:00 0 J/kg -1.5 K 0 % 0 % 0 % 0 m²/s² 0 0 0.03 3
19:00 0 J/kg -2.1 K 0 % 0 % 0 % 0 m²/s² 0 0 -1.11 80
20:00 0 J/kg -3.1 K 0 % 0 % 0 % 0 m²/s² 0 0 -2.53 95
21:00 0 J/kg -3.3 K 0 % 0 % 0 % 0 m²/s² 0 0 -3.09 95
22:00 0 J/kg -3.3 K 0 % 0 % 0 % 0 m²/s² 0 0 -2.79 95
23:00 0 J/kg -4.1 K 0 % 0 % 0 % 0 m²/s² 0 0 -3.59 95
 07:47     18:25    Daglengte: 10:38 Maandag 21 Okt
00:00 0 J/kg -4.0 K 0 % 0 % 0 % 0 m²/s² 0 0 -3.58 95
01:00 0 J/kg -4.4 K 0 % 0 % 0 % 0 m²/s² 0 0 -3.59 80
02:00 4 J/kg -4.1 K 0 % 0 % 0 % 0 m²/s² 0 0 -3.38 95
03:00 92 J/kg -4.7 K 0 % 0 % 0 % 0 m²/s² 0 0 -4.34 95
04:00 207 J/kg -4.8 K 0 % 0 % 0 % 0 m²/s² 0 0 -4.59 95
05:00 360 J/kg -4.8 K 0 % 0 % 0 % 0 m²/s² 0 0 -4.32 95
06:00 314 J/kg -4.6 K 0 % 0 % 0 % 0 m²/s² 0 0 -4.03 95
07:00 388 J/kg -4.0 K 0 % 0 % 0 % 0 m²/s² 0 0 -4 80
08:00 414 J/kg -2.6 K 0 % 0 % 0 % 0 m²/s² 0 0 -1.55 80
09:00 419 J/kg -2.7 K 0 % 0 % 0 % 0 m²/s² 0 0 -1.56 80
10:00 506 J/kg -2.7 K 0 % 0 % 0 % 0 m²/s² 0 0 -1.77 80
11:00 599 J/kg -2.9 K 0 % 0 % 0 % 0 m²/s² 0 0 -2.3 80
12:00 729 J/kg -3.4 K 0 % 0 % 0 % 0 m²/s² 0 0 -2.59 3
13:00 926 J/kg -3.7 K 0 % 0 % 0 % 0 m²/s² 0 0 -3.4 3
14:00 1102 J/kg -4.1 K 0 % 0 % 0 % 0 m²/s² 0 0 -3.92 95
15:00 1247 J/kg -4.4 K 0 % 0 % 0 % 0 m²/s² 0 0 -3.89 95
16:00 1187 J/kg -4.0 K 0 % 0 % 0 % 0 m²/s² 0 0 -3.1 3
17:00 1036 J/kg -3.9 K 0 % 0 % 0 % 0 m²/s² 0 0 -3.15 3
18:00 896 J/kg -3.9 K 0 % 0 % 0 % 0 m²/s² 0 0 -2.82 3
19:00 499 J/kg -4.2 K 0 % 0 % 0 % 0 m²/s² 0 0 -2.37 3
20:00 409 J/kg -4.5 K 0 % 0 % 0 % 0 m²/s² 0 0 -3.15 3
21:00 512 J/kg -4.2 K 0 % 0 % 0 % 0 m²/s² 0 0 -2.61 3
22:00 748 J/kg -3.6 K 0 % 0 % 0 % 0 m²/s² 0 0 -2.25 3
23:00 506 J/kg -2.9 K 0 % 0 % 0 % 0 m²/s² 0 0 -1.97 3
 07:48     18:24    Daglengte: 10:36 Dinsdag 22 Okt
00:00 415 J/kg -3.3 K 0 % 0 % 0 % 0 m²/s² 0 0 -3.3 3
01:00 395 J/kg -2.7 K 0 % 0 % 0 % 0 m²/s² 0 0 -2.01 3
02:00 140 J/kg -2.4 K 0 % 0 % 0 % 0 m²/s² 0 0 -1.14 3
03:00 2 J/kg -1.7 K 0 % 0 % 0 % 0 m²/s² 0 0 -0.71 3
04:00 0 J/kg -1.0 K 0 % 0 % 0 % 0 m²/s² 0 0 -0.1 2
05:00 0 J/kg -0.2 K 0 % 0 % 0 % 0 m²/s² 0 0 0.79 2
06:00 0 J/kg -0.3 K 0 % 0 % 0 % 0 m²/s² 0 0 0.96 2
07:00 0 J/kg -1.2 K 0 % 0 % 0 % 0 m²/s² 0 0 -0.12 2
08:00 0 J/kg -1.3 K 0 % 0 % 0 % 0 m²/s² 0 0 0.05 3
09:00 0 J/kg -1.2 K 0 % 0 % 0 % 0 m²/s² 0 0 0.33 3
10:00 0 J/kg -1.1 K 0 % 0 % 0 % 0 m²/s² 0 0 0.73 3
11:00 8 J/kg -0.5 K 0 % 0 % 0 % 0 m²/s² 0 0 1.66 3
12:00 73 J/kg -0.3 K 0 % 0 % 0 % 0 m²/s² 0 0 2.01 3
13:00 232 J/kg -1.0 K 0 % 0 % 0 % 0 m²/s² 0 0 1.73 3
14:00 238 J/kg -1.1 K 0 % 0 % 0 % 0 m²/s² 0 0 1.63 2
15:00 206 J/kg -1.1 K 0 % 0 % 0 % 0 m²/s² 0 0 1.9
16:00 158 J/kg -0.9 K 0 % 0 % 0 % 0 m²/s² 0 0 2.43
Temp Baro Wind Neerslag
  EWN Forecast EWN WRFDA DWD ICON FMI HIRLAM MET Norway GFSWXSIM
 07:44     18:29    Daglengte: 10:45 Vandaag
17:00 16.2° 1014.9 hPa 2.8 m/s 6.4 mm 19.2° 1012.8 hPa 4.6 m/s 8.2 mm 16.1° 1015.7 hPa 1.5 m/s 4.2 mm 16.0° 1015.3 hPa 3.3 m/s 0.0 mm 16.3° 1014.1 hPa 2.8 m/s 2.5 mm 15.9° 1013.8 hPa 2.1 m/s
20:00 15.3° 1015.5 hPa 3.1 m/s 5.8 mm 17.5° 1013.4 hPa 3.9 m/s 24.7 mm 14.9° 1015.9 hPa 1.5 m/s 1.3 mm 16.4° 1016.0 hPa 3.8 m/s 0.0 mm 15.1° 1014.7 hPa 3.3 m/s 0.9 mm 15.2° 1015.1 hPa 2.2 m/s
23:00 15.3° 1016.1 hPa 2.6 m/s 4.9 mm 16.5° 1014.6 hPa 4.5 m/s 24.7 mm 15.0° 1016.1 hPa 1.9 m/s 1.5 mm 16.3° 1017.2 hPa 3.3 m/s 0.0 mm 14.9° 1015.7 hPa 2.5 m/s 2.5 mm 15.5° 1015.8 hPa 1.6 m/s
 07:46     18:27    Daglengte: 10:41 Morgen
02:00 14.9° 1016.6 hPa 2.2 m/s 5.1 mm 16.1° 1014.9 hPa 3.8 m/s 24.8 mm 14.8° 1016.8 hPa 1.4 m/s 0.5 mm 16.2° 1017.5 hPa 3.5 m/s 0.0 mm 14.6° 1016.1 hPa 2.2 m/s 0.8 mm 14.9° 1016.6 hPa 1.3 m/s
05:00 14.7° 1016.5 hPa 2.1 m/s 1.8 mm 15.9° 1014.4 hPa 4.0 m/s 24.8 mm 14.2° 1016.7 hPa 1.1 m/s 0.0 mm 16.0° 1017.3 hPa 3.1 m/s 0.0 mm 14.4° 1015.9 hPa 1.9 m/s 0.5 mm 14.8° 1016.1 hPa 1.4 m/s
08:00 14.6° 1016.9 hPa 2.4 m/s 0.0 mm 15.7° 1015.2 hPa 4.1 m/s 25.2 mm 14.2° 1017.0 hPa 1.6 m/s 0.0 mm 15.6° 1018.2 hPa 3.3 m/s 0.0 mm 14.4° 1016.5 hPa 2.0 m/s 0.0 mm 14.0° 1017.0 hPa 1.2 m/s
11:00 17.2° 1018.0 hPa 2.6 m/s 1.8 mm 18.4° 1015.3 hPa 6.7 m/s 25.3 mm 16.2° 1018.1 hPa 0.8 m/s 0.3 mm 17.3° 1018.7 hPa 4.5 m/s 0.0 mm 17.5° 1017.5 hPa 2.5 m/s 0.3 mm 17.3° 1018.0 hPa 1.6 m/s
14:00 19.1° 1017.3 hPa 3.6 m/s 0.0 mm 20.8° 1014.7 hPa 6.8 m/s 25.3 mm 18.6° 1017.3 hPa 3.0 m/s 0.2 mm 19.4° 1018.0 hPa 5.6 m/s 0.0 mm 19.2° 1017.2 hPa 3.2 m/s 0.0 mm 19.0° 1017.3 hPa 1.6 m/s
17:00 18.1° 1017.0 hPa 2.8 m/s 5.8 mm 20.9° 1014.0 hPa 7.0 m/s 25.3 mm 17.1° 1017.4 hPa 1.6 m/s 3.0 mm 18.9° 1017.3 hPa 5.6 m/s 0.0 mm 18.0° 1016.6 hPa 2.5 m/s 1.4 mm 18.6° 1016.6 hPa 0.8 m/s
20:00 16.9° 1017.8 hPa 3.7 m/s 5.9 mm 19.3° 1015.3 hPa 6.3 m/s 26.0 mm 15.8° 1019.1 hPa 1.8 m/s 1.7 mm 17.7° 1017.9 hPa 6.3 m/s 0.0 mm 16.8° 1017.6 hPa 3.2 m/s 3.2 mm 16.0° 1018.3 hPa 1.4 m/s
23:00 16.7° 1018.7 hPa 3.1 m/s 6.4 mm 18.8° 1016.3 hPa 4.7 m/s 29.4 mm 15.8° 1019.4 hPa 1.8 m/s 4.2 mm 18.0° 1018.7 hPa 6.9 m/s 0.0 mm 16.4° 1018.6 hPa 2.4 m/s 1.2 mm 16.3° 1018.8 hPa 2.3 m/s
 07:47     18:25    Daglengte: 10:38 Maandag 21 Okt
02:00 16.5° 1018.5 hPa 2.7 m/s 7.6 mm 18.5° 1015.2 hPa 6.2 m/s 35.4 mm 16.0° 1019.5 hPa 1.8 m/s 5.4 mm 17.9° 1018.6 hPa 5.8 m/s 0.0 mm 16.2° 1018.6 hPa 2.3 m/s 1.9 mm 15.7° 1018.2 hPa 1.8 m/s
05:00 16.3° 1018.4 hPa 2.5 m/s 12.2 mm 18.1° 1014.8 hPa 6.3 m/s 43.4 mm 16.0° 1019.4 hPa 1.8 m/s 6.2 mm 17.7° 1018.5 hPa 5.7 m/s 0.0 mm 16.1° 1018.1 hPa 2.0 m/s 9.5 mm 15.9° 1017.7 hPa 1.6 m/s
08:00 16.2° 1019.6 hPa 2.1 m/s 16.2 mm 17.8° 1016.3 hPa 4.2 m/s 55.4 mm 16.0° 1020.6 hPa 1.8 m/s 4.6 mm 17.7° 1019.7 hPa 6.4 m/s 0.0 mm 15.8° 1019.3 hPa 1.3 m/s 14.9 mm 15.9° 1018.3 hPa 2.5 m/s
11:00 17.7° 1021.0 hPa 2.0 m/s 15.5 mm 18.9° 1018.2 hPa 4.4 m/s 61.6 mm 17.9° 1022.3 hPa 1.6 m/s 0.9 mm 17.9° 1020.8 hPa 1.8 m/s 7.4 mm 18.1° 1019.7 hPa 2.2 m/s
14:00 19.4° 1021.1 hPa 1.8 m/s 11.1 mm 20.3° 1018.6 hPa 3.2 m/s 64.9 mm 19.3° 1022.2 hPa 2.2 m/s 1.2 mm 19.7° 1021.0 hPa 1.8 m/s 1.8 mm 20.1° 1020.2 hPa 2.2 m/s
17:00 18.5° 1021.0 hPa 2.0 m/s 12.3 mm 19.9° 1017.6 hPa 3.4 m/s 74.6 mm 19.6° 1022.0 hPa 1.1 m/s 1.5 mm 18.4° 1021.0 hPa 2.3 m/s 3.5 mm 19.3° 1019.4 hPa 1.1 m/s
20:00 17.5° 1021.5 hPa 2.1 m/s 13.4 mm 19.4° 1018.3 hPa 3.8 m/s 82.9 mm 17.5° 1023.2 hPa 1.1 m/s 0.0 mm 17.4° 1021.5 hPa 2.1 m/s 7.7 mm 16.5° 1020.7 hPa 1.6 m/s
23:00 17.1° 1022.2 hPa 1.9 m/s 21.2 mm 18.3° 1018.5 hPa 2.4 m/s 89.9 mm 16.4° 1023.7 hPa 1.1 m/s 0.0 mm 17.1° 1022.1 hPa 2.1 m/s 6.0 mm 16.7° 1021.8 hPa 1.1 m/s
 07:48     18:24    Daglengte: 10:36 Dinsdag 22 Okt
02:00 16.6° 1022.7 hPa 1.3 m/s 21.3 mm 17.6° 1019.4 hPa 1.8 m/s 99.2 mm 15.7° 1024.1 hPa 0.9 m/s 0.0 mm 16.7° 1022.6 hPa 1.4 m/s 3.0 mm 16.7° 1022.1 hPa 0.4 m/s
05:00 15.6° 1022.4 hPa 1.1 m/s 13.9 mm 17.3° 1019.3 hPa 2.4 m/s 101.5 mm 15.2° 1023.9 hPa 0.9 m/s 0.0 mm 15.5° 1022.3 hPa 1.0 m/s 0.6 mm 15.3° 1021.6 hPa 0.9 m/s
08:00 14.9° 1022.8 hPa 1.0 m/s 0.0 mm 17.7° 1019.7 hPa 2.2 m/s 101.6 mm 14.3° 1024.2 hPa 1.0 m/s 0.0 mm 14.7° 1022.7 hPa 0.4 m/s 0.0 mm 14.8° 1021.5 hPa 1.1 m/s
11:00 17.9° 1022.8 hPa 1.3 m/s 0.0 mm 19.4° 1020.4 hPa 4.2 m/s 101.8 mm 18.0° 1024.5 hPa 1.1 m/s 0.0 mm 17.5° 1022.8 hPa 0.9 m/s 18.7° 1021.5 hPa 0.4 m/s
14:00 20.6° 1022.6 hPa 1.7 m/s 0.0 mm 21.9° 1020.4 hPa 4.9 m/s 101.8 mm 20.5° 1023.4 hPa 1.4 m/s 0.0 mm 20.4° 1022.8 hPa 1.4 m/s 20.4° 1021.6 hPa 0.9 m/s
17:00 19.2° 1022.2 hPa 1.5 m/s 101.9 mm 22.5° 1019.4 hPa 3.6 m/s 101.9 mm 18.6° 1022.6 hPa 1.2 m/s 19.5° 1020.1 hPa 0.9 m/s
20:00 17.3° 1022.1 hPa 1.2 m/s 101.8 mm 19.7° 1020.0 hPa 2.6 m/s 101.9 mm 16.9° 1022.5 hPa 1.0 m/s 16.4° 1021.0 hPa 1.2 m/s
23:00 14.4° 1022.1 hPa 1.0 m/s 21.3 mm 14.3° 1022.1 hPa 1.0 m/s 15.9° 1021.6 hPa 1.3 m/s 21.3 mm
 07:50     18:22    Daglengte: 10:32 Woensdag 23 Okt
02:00 13.2° 1021.8 hPa 1.0 m/s 21.3 mm 13.0° 1021.9 hPa 1.0 m/s 15.5° 1021.2 hPa 1.4 m/s 21.3 mm
05:00 12.5° 1021.2 hPa 1.0 m/s 21.3 mm 12.2° 1021.2 hPa 1.0 m/s 14.9° 1020.4 hPa 1.3 m/s 21.3 mm
08:00 11.8° 1020.5 hPa 1.0 m/s 21.3 mm 11.5° 1020.6 hPa 1.0 m/s 14.6° 1019.3 hPa 1.5 m/s 21.3 mm
11:00 16.7° 1020.0 hPa 1.0 m/s 21.3 mm 16.4° 1020.2 hPa 1.1 m/s 19.5° 1018.8 hPa 0.6 m/s 21.3 mm
14:00 21.3° 1019.5 hPa 1.1 m/s 21.3 mm 21.3° 1019.7 hPa 1.1 m/s 21.6° 1017.7 hPa 1.3 m/s 21.3 mm
17:00 18.6° 1019.1 hPa 0.9 m/s 21.3 mm 18.4° 1019.3 hPa 1.0 m/s 20.6° 1017.1 hPa 0.8 m/s 21.3 mm
20:00 15.6° 1018.8 hPa 0.9 m/s 21.3 mm 15.5° 1018.9 hPa 0.8 m/s 16.7° 1017.6 hPa 1.7 m/s 21.3 mm
23:00 13.9° 1018.8 hPa 1.2 m/s 21.3 mm 13.8° 1019.0 hPa 1.1 m/s 16.1° 1017.4 hPa 1.8 m/s 21.3 mm
 07:51     18:20    Daglengte: 10:29 Donderdag 24 Okt
02:00 12.3° 1018.9 hPa 1.4 m/s 21.3 mm 12.0° 1019.0 hPa 1.4 m/s 15.6° 1017.3 hPa 1.3 m/s 21.3 mm
05:00 12.9° 1018.6 hPa 1.0 m/s 21.3 mm 12.7° 1018.7 hPa 0.9 m/s 16.2° 1016.9 hPa 1.6 m/s 21.3 mm
08:00 13.5° 1018.2 hPa 0.5 m/s 21.3 mm 13.3° 1018.4 hPa 0.5 m/s 15.4° 1016.0 hPa 0.4 m/s 21.3 mm
11:00 16.5° 1018.2 hPa 0.9 m/s 21.4 mm 16.6° 1018.5 hPa 0.8 m/s 16.0° 1015.9 hPa 1.5 m/s 21.4 mm
14:00 19.5° 1018.3 hPa 1.2 m/s 21.6 mm 19.8° 1018.5 hPa 1.1 m/s 16.3° 1016.1 hPa 2.2 m/s 21.6 mm
17:00 17.7° 1018.4 hPa 1.1 m/s 21.7 mm 17.7° 1018.7 hPa 1.1 m/s 17.8° 1014.8 hPa 0.4 m/s 21.7 mm
20:00 15.5° 1018.6 hPa 1.3 m/s 21.7 mm 15.6° 1018.9 hPa 1.2 m/s 15.0° 1015.6 hPa 1.8 m/s 21.7 mm
23:00 14.0° 1018.7 hPa 1.1 m/s 21.7 mm 13.9° 1018.9 hPa 1.1 m/s 15.0° 1016.5 hPa 2.1 m/s 21.7 mm
 07:53     18:19    Daglengte: 10:26 Vrijdag 25 Okt
02:00 12.6° 1018.7 hPa 0.9 m/s 21.8 mm 12.3° 1018.9 hPa 0.9 m/s 15.5° 1015.9 hPa 1.2 m/s 21.8 mm
05:00 12.3° 1018.8 hPa 0.9 m/s 22.7 mm 12.1° 1019.1 hPa 0.8 m/s 14.6° 1015.6 hPa 2.5 m/s 22.7 mm
08:00 12.1° 1019.0 hPa 0.7 m/s 23.2 mm 11.9° 1019.3 hPa 0.6 m/s 14.6° 1015.4 hPa 1.4 m/s 23.2 mm
11:00 15.9° 1019.4 hPa 1.0 m/s 23.2 mm 15.7° 1019.8 hPa 1.1 m/s 17.5° 1015.1 hPa 0.7 m/s 23.2 mm
14:00 19.4° 1019.8 hPa 1.4 m/s 23.4 mm 19.5° 1020.3 hPa 1.5 m/s 18.4° 1014.5 hPa 0.4 m/s 23.4 mm
17:00 16.7° 1020.2 hPa 1.3 m/s 23.5 mm 16.7° 1020.8 hPa 1.1 m/s 16.3° 1013.8 hPa 2.4 m/s 23.5 mm
20:00 14.0° 1020.8 hPa 0.9 m/s 23.9 mm 13.9° 1021.3 hPa 0.8 m/s 15.4° 1014.8 hPa 1.8 m/s 23.9 mm
23:00 13.0° 1021.2 hPa 0.7 m/s 24.2 mm 12.8° 1021.6 hPa 0.6 m/s 15.1° 1015.9 hPa 2.1 m/s 24.2 mm
 07:54     18:17    Daglengte: 10:23 Zaterdag 26 Okt
02:00 12.0° 1021.5 hPa 0.5 m/s 24.2 mm 11.7° 1022.0 hPa 0.4 m/s 15.3° 1015.6 hPa 1.4 m/s 24.2 mm
05:00 11.4° 1021.4 hPa 0.7 m/s 24.2 mm 11.1° 1022.0 hPa 0.6 m/s 14.3° 1015.0 hPa 1.4 m/s 24.2 mm
08:00 10.8° 1021.4 hPa 0.9 m/s 24.2 mm 10.5° 1022.0 hPa 0.8 m/s 13.5° 1015.2 hPa 1.4 m/s 24.2 mm
11:00 15.6° 1021.7 hPa 1.1 m/s 24.7 mm 15.7° 1022.3 hPa 1.1 m/s 14.5° 1015.6 hPa 0.7 m/s 24.7 mm
14:00 20.3° 1022.0 hPa 1.5 m/s 25.1 mm 20.8° 1022.6 hPa 1.5 m/s 14.6° 1015.1 hPa 1.2 m/s 25.1 mm
20:00 14.5° 1021.6 hPa 0.8 m/s 25.1 mm 14.5° 1022.2 hPa 0.8 m/s 14.1° 1015.1 hPa 1.3 m/s 25.1 mm
 07:55     18:15    Daglengte: 10:20 Zondag 27 Okt
02:00 11.5° 1021.3 hPa 0.8 m/s 25.1 mm 11.3° 1021.8 hPa 0.7 m/s 13.3° 1015.6 hPa 2.0 m/s 25.1 mm
07:00 9.8° 1020.0 hPa 1.2 m/s 25.1 mm 9.5° 1020.4 hPa 1.2 m/s 12.7° 1015.6 hPa 1.6 m/s 25.1 mm
13:00 20.0° 1019.7 hPa 1.5 m/s 25.1 mm 20.0° 1020.2 hPa 1.5 m/s 20.5° 1014.7 hPa 1.4 m/s 25.1 mm
19:00 13.5° 1019.4 hPa 0.8 m/s 25.1 mm 13.4° 1019.8 hPa 0.7 m/s 14.9° 1015.4 hPa 1.4 m/s 25.1 mm
 07:57     18:14    Daglengte: 10:17 Maandag 28 Okt
01:00 11.8° 1020.1 hPa 1.0 m/s 25.1 mm 11.7° 1020.5 hPa 0.9 m/s 13.2° 1015.8 hPa 1.5 m/s 25.1 mm
07:00 10.5° 1020.2 hPa 0.8 m/s 25.1 mm 10.4° 1020.7 hPa 0.8 m/s 12.0° 1015.1 hPa 1.4 m/s 25.1 mm
13:00 18.6° 1020.4 hPa 1.8 m/s 25.1 mm 18.5° 1021.0 hPa 1.9 m/s 19.1° 1013.6 hPa 1.2 m/s 25.1 mm
19:00 13.1° 1020.3 hPa 1.0 m/s 25.1 mm 13.0° 1020.9 hPa 1.0 m/s 13.8° 1013.8 hPa 1.3 m/s 25.1 mm
 07:58     18:12    Daglengte: 10:14 Dinsdag 29 Okt
01:00 13.4° 1020.7 hPa 0.9 m/s 25.1 mm 13.5° 1021.3 hPa 0.8 m/s 12.8° 1014.3 hPa 1.6 m/s 25.1 mm
07:00 11.9° 1013.6 hPa 1.0 m/s 25.1 mm 11.9° 1013.6 hPa 1.0 m/s 25.1 mm
13:00 18.7° 1016.4 hPa 0.8 m/s 0.0 mm
19:00 12.1° 1017.3 hPa 0.7 m/s 0.1 mm
 08:00     18:11    Daglengte: 10:11 Woensdag 30 Okt
01:00 10.9° 1018.6 hPa 1.4 m/s 0.1 mm
07:00 10.0° 1018.8 hPa 1.6 m/s 0.2 mm
13:00 16.9° 1017.6 hPa 0.9 m/s 0.2 mm
19:00 10.9° 1018.7 hPa 0.7 m/s 0.2 mm
 08:01     18:09    Daglengte: 10:08 Donderdag 31 Okt
01:00 10.1° 1019.7 hPa 1.2 m/s 0.2 mm
07:00 9.2° 1019.6 hPa 1.4 m/s 0.2 mm
13:00 16.4° 1017.9 hPa 1.0 m/s 0.3 mm
19:00 10.8° 1019.0 hPa 0.5 m/s 0.3 mm
 08:02     18:08    Daglengte: 10:06 Vrijdag 01 Nov
01:00 10.0° 1019.9 hPa 1.3 m/s 0.2 mm
07:00 9.4° 1020.0 hPa 1.5 m/s 0.0 mm
13:00 17.0° 1018.6 hPa 1.2 m/s 0.0 mm
19:00 10.9° 1019.6 hPa 0.4 m/s 0.0 mm
 08:04     18:06    Daglengte: 10:02 Zaterdag 02 Nov
01:00 10.3° 1020.1 hPa 1.5 m/s 0.1 mm
07:00 9.3° 1019.7 hPa 1.5 m/s 0.7 mm
13:00 16.6° 1018.4 hPa 1.0 m/s 0.2 mm
19:00 10.5° 1019.3 hPa 0.3 m/s 0.0 mm
 08:05     18:05    Daglengte: 10:00 Zondag 03 Nov
01:00 9.8° 1019.8 hPa 1.0 m/s 0.2 mm
07:00 9.2° 1019.3 hPa 1.2 m/s 0.5 mm
13:00 15.9° 1017.8 hPa 0.9 m/s 0.8 mm
FMI Hirlam - 7.5 km EWN WRFDA - 12 km DWD ICON - 7 km GFS - 25 km Basiskaart






























































Updatetijd (Europe/Amsterdam) Resolutie Lengte Stap
FMI Hirlam 14:00, 20:00, 02:00, 08:00